TimeMST,TemperatureF,Dew PointF,Humidity,Sea Level PressureIn,VisibilityMPH,Wind Direction,Wind SpeedMPH,Gust SpeedMPH,PrecipitationIn,Events,Conditions,WindDirDegrees,DateUTC
12:53 AM,34.0,21.9,61,30.22,10.0,Variable,6.9,-,N/A,,Overcast,0,2012-02-05 07:53:00
1:53 AM,34.0,21.9,61,30.22,10.0,SW,4.6,-,N/A,,Overcast,220,2012-02-05 08:53:00
2:53 AM,33.1,23.0,66,30.19,10.0,Calm,Calm,-,N/A,,Overcast,0,2012-02-05 09:53:00
3:53 AM,34.0,23.0,64,30.19,10.0,North,3.5,-,N/A,,Overcast,10,2012-02-05 10:53:00
4:53 AM,33.1,23.0,66,30.22,10.0,Calm,Calm,-,N/A,,Overcast,0,2012-02-05 11:53:00
5:53 AM,32.0,23.0,69,30.25,10.0,ENE,3.5,-,0.00,,Overcast,70,2012-02-05 12:53:00
6:53 AM,32.0,23.0,69,30.27,10.0,ESE,3.5,-,0.00,Snow,Light Snow,110,2012-02-05 13:53:00
7:53 AM,33.1,21.9,64,30.26,10.0,East,5.8,-,0.00,,Overcast,90,2012-02-05 14:53:00
8:53 AM,33.1,23.0,66,30.27,3.0,SSW,6.9,-,0.00,Snow,Light Snow,210,2012-02-05 15:53:00
8:59 AM,32.0,24.8,75,30.27,2.0,WSW,3.5,-,0.00,Snow,Light Snow,250,2012-02-05 15:59:00
9:08 AM,32.0,24.8,75,30.27,1.2,Calm,Calm,-,0.00,Snow,Light Snow,0,2012-02-05 16:08:00
9:17 AM,30.2,26.6,86,30.27,0.5,Variable,3.5,-,0.00,Snow,Snow,0,2012-02-05 16:17:00
9:33 AM,30.2,26.6,86,30.27,1.5,West,4.6,-,0.01,Snow,Light Snow,270,2012-02-05 16:33:00
9:36 AM,30.2,26.6,86,30.26,2.5,West,5.8,-,0.01,Snow,Light Snow,270,2012-02-05 16:36:00
9:40 AM,30.2,26.6,86,30.26,3.0,West,4.6,-,0.01,Snow,Light Snow,270,2012-02-05 16:40:00
9:53 AM,30.0,27.0,88,30.28,9.0,West,3.5,-,0.01,Snow,Light Snow,280,2012-02-05 16:53:00
10:12 AM,30.2,26.6,86,30.27,2.5,WNW,4.6,-,0.00,Snow,Light Snow,290,2012-02-05 17:12:00
10:34 AM,30.2,26.6,86,30.26,4.0,NW,4.6,-,0.00,Snow,Light Snow,320,2012-02-05 17:34:00
10:53 AM,33.1,28.0,82,30.27,10.0,WNW,4.6,-,0.00,,Overcast,300,2012-02-05 17:53:00
11:53 AM,36.0,24.1,62,30.22,10.0,SSE,16.1,-,N/A,,Overcast,150,2012-02-05 18:53:00
12:53 PM,37.9,23.0,55,30.19,10.0,SSE,11.5,20.7,N/A,,Overcast,150,2012-02-05 19:53:00
1:53 PM,37.9,24.1,57,30.17,10.0,SSE,16.1,21.9,N/A,,Overcast,150,2012-02-05 20:53:00
2:53 PM,37.9,25.0,60,30.16,10.0,SSE,13.8,21.9,N/A,,Mostly Cloudy,150,2012-02-05 21:53:00
3:53 PM,37.9,24.1,57,30.14,10.0,SSE,8.1,-,N/A,,Scattered Clouds,150,2012-02-05 22:53:00
4:53 PM,37.0,24.1,59,30.14,10.0,ESE,3.5,-,N/A,,Mostly Cloudy,110,2012-02-05 23:53:00
5:53 PM,35.1,24.1,64,30.14,10.0,Calm,Calm,-,N/A,,Overcast,0,2012-02-06 00:53:00
6:53 PM,34.0,24.1,67,30.14,10.0,NE,3.5,-,N/A,,Overcast,40,2012-02-06 01:53:00
7:53 PM,32.0,25.0,75,30.13,10.0,Calm,Calm,-,N/A,,Overcast,0,2012-02-06 02:53:00
8:53 PM,34.0,24.1,67,30.12,10.0,Calm,Calm,-,N/A,,Overcast,0,2012-02-06 03:53:00
9:41 PM,33.8,26.6,75,30.13,10.0,WNW,8.1,-,N/A,,Overcast,290,2012-02-06 04:41:00
9:53 PM,34.0,27.0,75,30.14,9.0,Calm,Calm,-,0.00,Snow,Light Snow,0,2012-02-06 04:53:00
10:53 PM,33.1,28.0,82,30.11,9.0,ENE,3.5,-,0.00,,Overcast,70,2012-02-06 05:53:00
11:53 PM,35.1,26.1,70,30.07,10.0,West,4.6,-,N/A,,Overcast,280,2012-02-06 06:53:00